SCP
0 0 0 0 0 0 0 0 0 0 0 0 0 0 0 0 0 0 0 0 0 0 -0 0 0 0 0 0 0 0 -0 -0 -0 0 0 0 0 0 0 0 0 0 0 0
0 0 0 0 0 0 0 0 0 0 0 0 0 0 0 0 0 0 0 0 0 -0 0 0 0 0 0 0 -0 0 0 0 0 0 0 0 0 0 0 0 0 0 0 0
0 0 0 0 0 0 0 0 0 0 0 0 0 0 0 0 0 0 0 -0 -0 0 0 0 0 0 0 0 0 0 0 0 0 0 0 0 0 0 0 0 0 0 0 0
0 0 0 0 0 0 0 0 0 0 0 0 0 0 0 0 0 0 0 0 -0 0 0 0 0 0 -0 0 0 0 0 0 0 0 0 0 0 0 0 0 0 0 0 0
0 0 0 0 0 0 0 0 0 0 0 0 0 0 0 0 0 0 0 0 -0 0 0 -0 -0 0 0 0 0 0 0 0 0 0 0 0 0 0 0 0 0 0 0 0
0 0 0 0 0 0 0 0 0 0 0 0 0 0 0 0 0 0 0 0 0 0 0 0 0 0 0 0 0 0 0 0 0 0 0 0 0 0 0 0 0 0 0 0
0 0 0 0 0 0 0 0 0 0 0 0 0 0 0 0 0 -0 0 0 0 0 0 0 0 0 0 0 0 0 1 1 0 0 0 0 0 0 0 0 0 0 0 0
0 0 0 0 0 0 0 0 0 0 0 0 0 0 0 0 0 0 0 0 0 0 0 0 0 0 0 0 0 0 1 1 1 0 0 0 0 0 0 0 0 0 0 0
0 0 0 0 0 0 0 0 0 0 0 0 0 0 0 0 0 0 0 -0 0 0 0 0 0 0 0 0 0 0 0 0 0 0 0 0 0 0 0 0 0 0 0 0
0 0 0 0 0 0 0 0 0 0 0 0 0 0 0 0 0 0 0 0 0 0 -0 0 0 0 0 0 0 1 0 0 0 0 0 0 0 -0 0 0 0 0 0 0
0 0 0 0 0 0 0 0 0 0 0 0 0 0 0 0 0 0 0 0 0 0 0 0 0 0 0 0 0 0 0 0 0 0 0 0 0 1 1 1 1 1 1 1
0 0 0 0 0 0 0 0 0 0 0 0 0 0 0 0 0 0 0 0 0 0 0 0 0 0 0 -0 0 0 0 1 0 1 1 0 0 0 0 0 0 0 0 0
0 0 0 0 0 0 0 0 0 0 0 0 0 0 0 0 0 0 0 0 0 0 0 0 0 2 1 0 -0 0 -0 0 0 0 1 0 0 0 0 0 0 0 0 0
0 0 0 0 0 0 0 0 0 0 0 0 0 0 0 0 0 0 0 0 0 0 0 0 0 1 0 0 0 0 0 0 0 1 1 0 0 0 0 -0 0 0 0 0
0 0 0 0 0 0 0 0 0 0 0 0 0 0 0 0 0 0 0 0 0 0 0 0 0 0 0 0 0 0 0 0 0 0 0 0 0 0 0 0 0 0 0 0
0 0 0 0 0 0 0 0 0 0 0 0 0 0 0 0 -0 0 0 0 0 0 0 0 0 0 0 0 0 0 -0 -0 -0 0 -0 0 0 0 0 0 0 0 0 0
0 0 0 0 0 0 0 0 0 0 0 0 0 0 0 0 0 0 0 0 0 0 0 0 0 0 0 0 0 0 0 0 0 0 0 0 0 0 0 0 0 0 0 0
0 0 0 0 0 0 0 0 0 0 0 0 0 0 0 0 0 0 0 0 0 0 0 0 0 0 0 0 0 0 0 0 0 0 0 0 0 0 0 0 0 0 0 0
0 0 0 0 0 0 0 0 0 0 0 0 0 0 0 -0 0 0 0 0 0 0 0 0 0 0 0 0 0 0 0 0 0 0 0 0 0 0 0 0 0 0 0 0
0 0 0 0 0 0 0 0 0 0 0 0 0 0 0 0 0 0 0 0 0 0 0 0 0 0 0 0 0 0 0 0 0 0 0 0 0 0 0 0 0 0 0 0
0 0 0 0 0 0 0 0 0 0 0 0 0 0 0 0 0 0 0 0 0 0 0 0 0 0 0 0 0 0 0 0 0 0 0 0 0 0 0 0 0 0 0 0
0 0 0 0 0 0 0 0 0 0 0 0 0 0 0 0 0 0 0 0 0 0 0 0 0 0 0 0 0 0 0 0 0 0 0 0 0 0 0 0 0 0 0 0
0 0 0 0 0 0 0 0 0 0 0 0 0 0 0 0 0 0 0 0 0 0 0 0 0 0 0 0 0 0 0 0 0 0 0 0 0 0 0 0 0 0 0 0
0 0 0 0 0 0 0 0 0 0 0 0 0 0 0 0 0 0 0 0 0 0 0 0 0 0 0 0 0 -0 -0 -0 -0 -0 0 0 0 0 0 0 0 0 0 0
0 0 0 0 0 0 0 0 0 0 0 0 0 0 0 0 0 0 0 0 0 0 0 0 -0 0 0 -0 -0 -0 0 0 0 0 0 0 0 0 0 0 0 0 0 0
0 0 0 0 0 0 0 -0 0 0 0 0 0 0 0 0 0 0 0 0 0 0 0 0 0 -0 -0 0 0 0 0 0 0 0 0 -0 0 -0 0 0 0 0 0 0
0 0 0 0 0 0 0 0 0 0 0 0 0 0 0 0 0 0 0 0 0 0 0 -0 -0 0 0 0 0 0 0 0 -0 0 0 0 -0 0 -0 0 0 0 0 0
Wind_Speed_500mb
44 46 48 51 54 58 45 15 8 31 44 13 14 16 16 41 40 56 47 46 43 42 15 17 23 32 38 58 43 44 45 11 23 28 16 25 17 17 18 11 8 3 11 9
41 44 48 45 46 52 61 28 20 31 35 10 17 20 39 50 39 42 46 48 38 30 16 15 20 21 36 58 47 45 29 26 20 12 17 25 30 18 17 13 8 8 7 5
40 41 43 43 40 39 46 15 8 19 36 38 22 27 33 37 53 44 54 47 23 27 16 20 23 30 27 56 47 77 35 14 17 14 18 21 21 27 17 17 10 12 13 14
41 40 42 40 38 36 29 11 9 20 10 14 32 28 29 45 43 44 40 30 16 31 26 26 19 26 14 32 59 39 28 16 15 16 14 7 18 12 17 16 16 15 14 19
37 37 41 41 38 29 10 13 13 21 35 32 25 25 30 38 44 33 24 36 26 37 13 9 12 21 12 11 8 32 14 13 9 3 5 10 12 29 29 33 25 14 16 14
38 35 36 38 37 31 10 20 23 17 22 14 17 20 45 30 38 36 40 31 10 15 14 21 24 38 37 19 6 9 18 12 9 9 2 12 12 9 11 16 29 31 25 17
40 35 36 32 30 27 21 24 35 21 14 16 15 41 45 31 25 11 40 41 12 26 42 32 23 27 28 18 18 11 11 10 9 8 7 11 13 15 10 31 27 32 17 27
38 36 35 32 27 27 26 13 17 22 12 26 27 43 40 42 43 21 24 27 24 32 32 11 9 7 7 11 16 13 11 10 12 9 11 8 9 15 5 7 6 17 33 25
40 40 33 32 27 26 29 3 9 25 16 4 30 32 38 13 22 18 31 33 22 13 3 2 4 4 5 3 7 8 25 19 11 8 11 0 15 12 20 12 7 10 35 22
35 37 33 30 27 23 25 10 2 18 24 38 31 10 18 28 23 9 10 35 13 12 3 5 3 11 5 11 7 9 5 9 11 10 5 15 19 27 39 9 14 27 31 46
36 33 31 28 26 21 22 12 2 23 22 54 28 17 25 34 20 10 31 26 19 10 4 5 6 7 15 11 14 31 14 6 2 7 9 9 41 20 10 5 41 41 37 34
29 31 28 26 26 19 19 16 7 15 18 28 21 31 24 13 15 26 20 15 18 17 8 10 9 7 8 5 8 24 9 5 8 5 9 8 17 23 51 46 39 33 32 26
25 25 25 24 24 19 16 16 15 24 19 45 36 24 11 6 10 10 8 11 21 16 21 8 7 7 9 8 7 8 11 4 6 2 8 7 29 25 35 49 49 31 22 26
25 25 23 21 21 18 18 18 6 7 18 12 3 8 11 19 20 12 15 23 23 23 28 9 6 6 25 9 9 6 4 6 3 9 20 13 20 13 14 25 39 44 31 29
19 18 18 18 17 16 17 16 11 5 14 12 23 23 21 19 11 2 8 10 15 16 9 4 6 6 12 10 10 5 12 12 8 5 5 18 20 21 21 24 24 16 19 26
15 16 17 16 14 8 7 1 3 14 11 8 7 6 19 12 3 2 8 14 17 12 8 7 11 16 9 4 8 30 30 56 50 19 44 19 17 20 22 17 13 15 18 22
18 16 15 15 11 11 9 6 5 11 12 6 9 8 15 13 8 8 8 6 9 10 7 5 3 7 9 3 4 17 44 48 44 35 31 20 23 25 25 19 18 19 21 25
14 12 12 10 7 8 11 6 3 0 5 10 6 8 12 19 17 10 13 13 9 6 7 8 2 5 5 3 7 30 33 35 39 40 35 28 18 12 11 13 20 21 26 29
11 8 6 3 7 3 5 11 8 5 8 10 7 6 5 13 12 14 10 7 5 14 4 5 2 3 3 12 10 26 47 46 40 36 32 28 28 29 26 24 26 26 27 32
8 6 1 5 7 8 5 2 6 6 9 10 8 12 7 9 7 8 8 8 5 6 10 9 2 3 51 57 57 51 46 41 38 41 41 38 37 37 37 36 33 35 38 39
8 6 6 4 8 5 5 5 8 12 8 14 12 19 9 16 8 6 12 5 7 2 4 9 5 9 27 50 51 43 40 39 37 34 33 34 37 40 41 40 39 40 41 45
7 6 1 6 5 5 6 3 7 8 8 15 17 14 6 8 8 5 7 5 2 4 7 5 6 5 37 42 42 41 37 36 32 29 31 33 35 39 43 46 47 43 46 52
4 2 3 4 5 1 7 7 6 5 8 2 14 5 4 2 4 5 6 4 5 5 6 5 6 22 31 35 35 35 33 33 32 31 31 34 39 39 38 44 49 45 47 53
3 4 7 5 5 7 3 10 14 22 22 17 10 14 8 9 2 4 4 6 6 6 2 9 5 26 32 34 32 33 36 34 32 31 32 37 37 42 46 42 41 41 44 43
4 7 5 8 17 5 2 14 18 12 25 24 9 6 6 1 2 4 7 4 5 4 8 5 17 26 27 29 22 26 28 27 27 27 32 28 24 30 28 21 24 26 20 19
5 5 8 20 6 11 7 28 17 14 8 14 11 3 5 6 5 5 4 5 10 7 9 25 14 19 20 18 16 14 27 18 19 21 36 24 26 22 26 30 9 19 15 10
8 7 14 16 12 20 24 16 19 17 3 8 7 3 0 6 1 2 7 7 4 15 19 17 17 20 19 18 10 11 18 23 23 24 30 25 25 31 26 23 20 16 13 7
Wind_Direction_500mb
331 332 335 337 337 333 342 346 272 156 169 176 210 236 250 258 268 272 279 276 270 277 316 311 228 216 195 192 202 223 225 198 239 210 182 174 196 178 164 127 271 222 150 262
329 332 336 338 342 342 341 317 273 219 208 220 243 253 245 259 260 263 274 280 264 274 279 309 297 306 216 192 194 222 216 230 244 289 200 185 198 214 173 151 126 238 126 250
325 330 335 337 339 340 335 298 289 251 249 245 252 269 279 270 253 260 268 278 297 315 299 273 279 290 285 205 196 210 205 220 172 205 204 171 198 209 176 162 149 223 205 165
324 330 334 336 337 333 314 249 273 350 314 305 324 307 297 275 281 270 276 276 295 293 295 301 273 276 336 320 193 200 203 200 196 213 245 269 208 196 210 207 209 164 224 155
317 325 331 337 340 346 305 301 350 329 297 288 280 275 282 261 266 272 291 337 217 250 300 4 341 353 23 255 305 188 187 189 126 112 357 242 249 198 212 236 216 244 238 220
312 319 325 336 343 355 327 312 343 320 290 304 310 308 316 286 256 274 312 317 299 286 28 309 316 305 290 279 298 211 137 129 103 160 359 337 326 273 229 247 213 207 226 220
308 310 316 326 337 341 322 310 321 298 296 308 331 304 333 319 357 40 294 300 300 6 350 322 311 298 287 331 356 30 104 96 109 148 124 249 247 301 332 78 41 41 38 139
309 312 311 316 324 320 315 321 299 304 299 303 319 334 319 329 334 322 291 301 319 319 1 320 322 342 359 331 312 50 68 89 62 128 186 218 273 263 141 163 59 35 44 120
300 306 309 310 313 313 312 262 351 311 286 253 344 322 0 350 348 336 360 227 269 43 317 164 288 255 72 251 306 135 67 80 99 80 95 103 237 146 108 38 60 3 84 46
290 298 307 308 307 311 312 273 4 314 291 277 342 356 328 336 338 308 339 339 333 355 196 305 234 275 269 321 108 324 10 68 116 118 115 285 355 288 94 110 231 22 105 107
283 287 301 305 304 306 312 203 48 312 295 287 278 321 327 334 1 339 325 323 10 350 348 211 241 229 266 239 167 172 188 164 110 129 95 282 346 325 111 157 86 96 69 65
281 283 286 297 300 295 299 280 272 304 272 254 267 289 289 288 305 299 316 308 13 2 346 13 317 273 269 32 81 319 30 359 124 213 140 170 94 18 23 47 49 47 59 53
282 279 281 289 295 283 289 297 358 352 302 307 270 265 289 261 271 263 306 358 356 347 345 300 281 310 347 38 62 93 98 7 150 193 22 349 355 31 42 33 24 29 29 48
276 281 279 285 292 278 273 284 270 354 308 272 232 196 229 274 277 276 239 273 311 321 305 262 266 328 6 41 208 94 162 50 5 93 55 79 44 68 78 75 57 25 350 36
268 285 279 293 297 278 273 283 178 90 283 313 294 279 248 270 296 176 276 279 313 326 319 310 276 34 2 321 14 98 174 170 116 149 57 84 290 40 80 75 50 34 357 359
261 284 273 294 295 268 355 280 149 210 242 276 284 294 203 233 354 12 211 252 285 285 308 306 330 46 39 334 83 29 96 134 134 156 125 166 257 69 54 51 19 2 327 351
258 282 271 288 278 222 225 249 168 205 255 256 281 286 181 205 219 252 236 241 264 262 267 253 328 51 45 3 311 32 63 74 76 94 108 95 42 28 29 12 354 339 329 321
244 264 278 285 242 240 236 283 219 261 262 252 276 268 157 189 216 211 211 206 215 250 292 321 26 110 110 94 78 70 79 84 82 71 65 56 47 42 25 1 355 360 355 353
228 235 282 140 180 196 216 243 287 244 213 303 280 294 39 186 246 152 173 259 205 161 190 268 255 216 170 191 169 86 77 68 61 58 52 41 27 18 12 6 3 357 344 337
202 181 214 251 209 197 232 275 173 213 226 230 254 280 294 323 261 203 181 188 255 185 206 203 126 13 65 70 70 67 64 59 51 44 27 16 7 357 348 343 336 329 328 324
150 234 254 146 180 183 256 255 216 210 215 210 234 259 294 29 25 324 28 313 309 316 205 153 123 54 18 47 58 51 43 36 29 18 3 350 340 334 328 321 316 316 313 308
215 314 209 148 242 238 253 247 240 236 218 194 203 219 35 29 360 315 338 325 315 331 327 348 84 8 28 35 29 23 19 8 358 352 338 326 317 309 303 312 312 306 309 305
154 46 334 326 187 87 214 201 241 224 170 244 107 77 93 88 341 340 360 298 260 356 339 61 56 23 20 12 6 359 357 354 352 350 347 341 327 322 317 307 311 305 305 305
24 356 341 222 224 234 307 346 23 355 90 68 60 102 35 30 10 330 229 348 337 297 226 66 26 22 10 355 350 351 349 346 344 341 335 328 326 320 313 311 317 318 318 318
248 246 278 225 258 125 140 52 84 16 59 89 105 52 338 212 53 282 15 173 328 30 72 86 64 12 355 344 357 347 343 335 334 337 324 324 328 332 332 330 331 336 330 304
280 266 305 356 348 272 202 93 40 80 112 83 67 41 5 45 319 9 306 275 43 56 15 350 358 348 358 17 15 19 24 25 6 15 18 29 7 354 354 348 354 349 341 346
312 351 18 7 354 339 353 40 65 358 345 12 344 147 14 251 138 30 31 44 36 360 341 343 342 339 8 20 11 5 3 9 5 5 9 3 360 12 11 12 18 10 19 348
Wind_Speed_850mb
44 46 48 51 54 58 45 15 8 31 44 13 14 16 16 41 40 56 47 46 43 42 15 17 23 32 38 58 43 44 45 11 23 28 16 25 17 17 18 11 8 3 11 9
41 44 48 45 46 52 61 28 20 31 35 10 17 20 39 50 39 42 46 48 38 30 16 15 20 21 36 58 47 45 29 26 20 12 17 25 30 18 17 13 8 8 7 5
40 41 43 43 40 39 46 15 8 19 36 38 22 27 33 37 53 44 54 47 23 27 16 20 23 30 27 56 47 77 35 14 17 14 18 21 21 27 17 17 10 12 13 14
41 40 42 40 38 36 29 11 9 20 10 14 32 28 29 45 43 44 40 30 16 31 26 26 19 26 14 32 59 39 28 16 15 16 14 7 18 12 17 16 16 15 14 19
37 37 41 41 38 29 10 13 13 21 35 32 25 25 30 38 44 33 24 36 26 37 13 9 12 21 12 11 8 32 14 13 9 3 5 10 12 29 29 33 25 14 16 14
38 35 36 38 37 31 10 20 23 17 22 14 17 20 45 30 38 36 40 31 10 15 14 21 24 38 37 19 6 9 18 12 9 9 2 12 12 9 11 16 29 31 25 17
40 35 36 32 30 27 21 24 35 21 14 16 15 41 45 31 25 11 40 41 12 26 42 32 23 27 28 18 18 11 11 10 9 8 7 11 13 15 10 31 27 32 17 27
38 36 35 32 27 27 26 13 17 22 12 26 27 43 40 42 43 21 24 27 24 32 32 11 9 7 7 11 16 13 11 10 12 9 11 8 9 15 5 7 6 17 33 25
40 40 33 32 27 26 29 3 9 25 16 4 30 32 38 13 22 18 31 33 22 13 3 2 4 4 5 3 7 8 25 19 11 8 11 0 15 12 20 12 7 10 35 22
35 37 33 30 27 23 25 10 2 18 24 38 31 10 18 28 23 9 10 35 13 12 3 5 3 11 5 11 7 9 5 9 11 10 5 15 19 27 39 9 14 27 31 46
36 33 31 28 26 21 22 12 2 23 22 54 28 17 25 34 20 10 31 26 19 10 4 5 6 7 15 11 14 31 14 6 2 7 9 9 41 20 10 5 41 41 37 34
29 31 28 26 26 19 19 16 7 15 18 28 21 31 24 13 15 26 20 15 18 17 8 10 9 7 8 5 8 24 9 5 8 5 9 8 17 23 51 46 39 33 32 26
25 25 25 24 24 19 16 16 15 24 19 45 36 24 11 6 10 10 8 11 21 16 21 8 7 7 9 8 7 8 11 4 6 2 8 7 29 25 35 49 49 31 22 26
25 25 23 21 21 18 18 18 6 7 18 12 3 8 11 19 20 12 15 23 23 23 28 9 6 6 25 9 9 6 4 6 3 9 20 13 20 13 14 25 39 44 31 29
19 18 18 18 17 16 17 16 11 5 14 12 23 23 21 19 11 2 8 10 15 16 9 4 6 6 12 10 10 5 12 12 8 5 5 18 20 21 21 24 24 16 19 26
15 16 17 16 14 8 7 1 3 14 11 8 7 6 19 12 3 2 8 14 17 12 8 7 11 16 9 4 8 30 30 56 50 19 44 19 17 20 22 17 13 15 18 22
18 16 15 15 11 11 9 6 5 11 12 6 9 8 15 13 8 8 8 6 9 10 7 5 3 7 9 3 4 17 44 48 44 35 31 20 23 25 25 19 18 19 21 25
14 12 12 10 7 8 11 6 3 0 5 10 6 8 12 19 17 10 13 13 9 6 7 8 2 5 5 3 7 30 33 35 39 40 35 28 18 12 11 13 20 21 26 29
11 8 6 3 7 3 5 11 8 5 8 10 7 6 5 13 12 14 10 7 5 14 4 5 2 3 3 12 10 26 47 46 40 36 32 28 28 29 26 24 26 26 27 32
8 6 1 5 7 8 5 2 6 6 9 10 8 12 7 9 7 8 8 8 5 6 10 9 2 3 51 57 57 51 46 41 38 41 41 38 37 37 37 36 33 35 38 39
8 6 6 4 8 5 5 5 8 12 8 14 12 19 9 16 8 6 12 5 7 2 4 9 5 9 27 50 51 43 40 39 37 34 33 34 37 40 41 40 39 40 41 45
7 6 1 6 5 5 6 3 7 8 8 15 17 14 6 8 8 5 7 5 2 4 7 5 6 5 37 42 42 41 37 36 32 29 31 33 35 39 43 46 47 43 46 52
4 2 3 4 5 1 7 7 6 5 8 2 14 5 4 2 4 5 6 4 5 5 6 5 6 22 31 35 35 35 33 33 32 31 31 34 39 39 38 44 49 45 47 53
3 4 7 5 5 7 3 10 14 22 22 17 10 14 8 9 2 4 4 6 6 6 2 9 5 26 32 34 32 33 36 34 32 31 32 37 37 42 46 42 41 41 44 43
4 7 5 8 17 5 2 14 18 12 25 24 9 6 6 1 2 4 7 4 5 4 8 5 17 26 27 29 22 26 28 27 27 27 32 28 24 30 28 21 24 26 20 19
5 5 8 20 6 11 7 28 17 14 8 14 11 3 5 6 5 5 4 5 10 7 9 25 14 19 20 18 16 14 27 18 19 21 36 24 26 22 26 30 9 19 15 10
8 7 14 16 12 20 24 16 19 17 3 8 7 3 0 6 1 2 7 7 4 15 19 17 17 20 19 18 10 11 18 23 23 24 30 25 25 31 26 23 20 16 13 7
Wind_Direction_850mb
331 332 335 337 337 333 342 346 272 156 169 176 210 236 250 258 268 272 279 276 270 277 316 311 228 216 195 192 202 223 225 198 239 210 182 174 196 178 164 127 271 222 150 262
329 332 336 338 342 342 341 317 273 219 208 220 243 253 245 259 260 263 274 280 264 274 279 309 297 306 216 192 194 222 216 230 244 289 200 185 198 214 173 151 126 238 126 250
325 330 335 337 339 340 335 298 289 251 249 245 252 269 279 270 253 260 268 278 297 315 299 273 279 290 285 205 196 210 205 220 172 205 204 171 198 209 176 162 149 223 205 165
324 330 334 336 337 333 314 249 273 350 314 305 324 307 297 275 281 270 276 276 295 293 295 301 273 276 336 320 193 200 203 200 196 213 245 269 208 196 210 207 209 164 224 155
317 325 331 337 340 346 305 301 350 329 297 288 280 275 282 261 266 272 291 337 217 250 300 4 341 353 23 255 305 188 187 189 126 112 357 242 249 198 212 236 216 244 238 220
312 319 325 336 343 355 327 312 343 320 290 304 310 308 316 286 256 274 312 317 299 286 28 309 316 305 290 279 298 211 137 129 103 160 359 337 326 273 229 247 213 207 226 220
308 310 316 326 337 341 322 310 321 298 296 308 331 304 333 319 357 40 294 300 300 6 350 322 311 298 287 331 356 30 104 96 109 148 124 249 247 301 332 78 41 41 38 139
309 312 311 316 324 320 315 321 299 304 299 303 319 334 319 329 334 322 291 301 319 319 1 320 322 342 359 331 312 50 68 89 62 128 186 218 273 263 141 163 59 35 44 120
300 306 309 310 313 313 312 262 351 311 286 253 344 322 0 350 348 336 360 227 269 43 317 164 288 255 72 251 306 135 67 80 99 80 95 103 237 146 108 38 60 3 84 46
290 298 307 308 307 311 312 273 4 314 291 277 342 356 328 336 338 308 339 339 333 355 196 305 234 275 269 321 108 324 10 68 116 118 115 285 355 288 94 110 231 22 105 107
283 287 301 305 304 306 312 203 48 312 295 287 278 321 327 334 1 339 325 323 10 350 348 211 241 229 266 239 167 172 188 164 110 129 95 282 346 325 111 157 86 96 69 65
281 283 286 297 300 295 299 280 272 304 272 254 267 289 289 288 305 299 316 308 13 2 346 13 317 273 269 32 81 319 30 359 124 213 140 170 94 18 23 47 49 47 59 53
282 279 281 289 295 283 289 297 358 352 302 307 270 265 289 261 271 263 306 358 356 347 345 300 281 310 347 38 62 93 98 7 150 193 22 349 355 31 42 33 24 29 29 48
276 281 279 285 292 278 273 284 270 354 308 272 232 196 229 274 277 276 239 273 311 321 305 262 266 328 6 41 208 94 162 50 5 93 55 79 44 68 78 75 57 25 350 36
268 285 279 293 297 278 273 283 178 90 283 313 294 279 248 270 296 176 276 279 313 326 319 310 276 34 2 321 14 98 174 170 116 149 57 84 290 40 80 75 50 34 357 359
261 284 273 294 295 268 355 280 149 210 242 276 284 294 203 233 354 12 211 252 285 285 308 306 330 46 39 334 83 29 96 134 134 156 125 166 257 69 54 51 19 2 327 351
258 282 271 288 278 222 225 249 168 205 255 256 281 286 181 205 219 252 236 241 264 262 267 253 328 51 45 3 311 32 63 74 76 94 108 95 42 28 29 12 354 339 329 321
244 264 278 285 242 240 236 283 219 261 262 252 276 268 157 189 216 211 211 206 215 250 292 321 26 110 110 94 78 70 79 84 82 71 65 56 47 42 25 1 355 360 355 353
228 235 282 140 180 196 216 243 287 244 213 303 280 294 39 186 246 152 173 259 205 161 190 268 255 216 170 191 169 86 77 68 61 58 52 41 27 18 12 6 3 357 344 337
202 181 214 251 209 197 232 275 173 213 226 230 254 280 294 323 261 203 181 188 255 185 206 203 126 13 65 70 70 67 64 59 51 44 27 16 7 357 348 343 336 329 328 324
150 234 254 146 180 183 256 255 216 210 215 210 234 259 294 29 25 324 28 313 309 316 205 153 123 54 18 47 58 51 43 36 29 18 3 350 340 334 328 321 316 316 313 308
215 314 209 148 242 238 253 247 240 236 218 194 203 219 35 29 360 315 338 325 315 331 327 348 84 8 28 35 29 23 19 8 358 352 338 326 317 309 303 312 312 306 309 305
154 46 334 326 187 87 214 201 241 224 170 244 107 77 93 88 341 340 360 298 260 356 339 61 56 23 20 12 6 359 357 354 352 350 347 341 327 322 317 307 311 305 305 305
24 356 341 222 224 234 307 346 23 355 90 68 60 102 35 30 10 330 229 348 337 297 226 66 26 22 10 355 350 351 349 346 344 341 335 328 326 320 313 311 317 318 318 318
248 246 278 225 258 125 140 52 84 16 59 89 105 52 338 212 53 282 15 173 328 30 72 86 64 12 355 344 357 347 343 335 334 337 324 324 328 332 332 330 331 336 330 304
280 266 305 356 348 272 202 93 40 80 112 83 67 41 5 45 319 9 306 275 43 56 15 350 358 348 358 17 15 19 24 25 6 15 18 29 7 354 354 348 354 349 341 346
312 351 18 7 354 339 353 40 65 358 345 12 344 147 14 251 138 30 31 44 36 360 341 343 342 339 8 20 11 5 3 9 5 5 9 3 360 12 11 12 18 10 19 348